This demonstration page uses our WeatherBlox Daily Observations layout. Learn more.

Hourly Observations for May 10, 2019

Temp ( °F °C ) Dew Point ( °F °C ) Humidity (%) Winds ( mph kmh ) Pressure ( in mb ) Visibility ( mi km ) Precip ( " mm )
12:54 am 00:54 Cloudy 48 8.9 41 5 77 77 W 5 7 30.18 1022 10 16.09344 0 0
1:54 am 01:54 Mostly Cloudy 47 8.3 40 4.4 77 77 WNW 3 6 30.18 1022 10 16.09344 0 0
2:54 am 02:54 Cloudy 45 7.2 38 3.3 77 77 NNW 5 7 30.18 1022 10 16.09344 0 0
3:54 am 03:54 Clear 41 5 37 2.8 86 86 Calm 30.18 1022 10 16.09344 0 0
4:54 am 04:54 Clear 39 3.9 35 1.7 86 86 NNW 6 9 30.18 1022 10 16.09344 0 0
5:54 am 05:54 Clear 39 3.9 35 1.7 86 86 Calm 30.18 1022 10 16.09344 0 0
6:54 am 06:54 Sunny 37 2.8 33 0.6 86 86 Calm 30.18 1022 10 16.09344 0 0
7:54 am 07:54 Sunny 44 6.7 36 2.2 73 73 Calm 30.24 1024 10 16.09344 0 0
8:54 am 08:54 Sunny 48 8.9 38 3.3 68 68 Calm 30.27 1025 10 16.09344 0 0
9:54 am 09:54 Sunny 53 11.7 37 2.8 55 55 Calm 30.24 1024 10 16.09344 0 0
10:54 am 10:54 Mostly Sunny 56 13.3 35 1.7 46 46 NNW 6 9 30.21 1023 10 16.09344 0 0
11:54 am 11:54 Partly Cloudy 57 13.9 34 1.1 42 42 WNW 8 13 30.18 1022 10 16.09344 0 0
12:54 pm 12:54 Mostly Sunny 59 15 33 0.6 38 38 W 8 13 30.18 1022 10 16.09344 0 0
1:54 pm 13:54 Sunny 61 16.1 34 1.1 36 36 VRB 7 11 30.15 1021 10 16.09344 0 0
2:54 pm 14:54 Sunny 61 16.1 33 0.6 35 35 VRB 3 6 30.15 1021 10 16.09344 0 0
3:54 pm 15:54 Sunny 62 16.7 31 -0.6 31 31 VRB 5 7 30.12 1020 10 16.09344 0 0
4:54 pm 16:54 Sunny 63 17.2 32 0 31 31 NW 6 9 30.09 1019 10 16.09344 0 0
5:54 pm 17:54 Sunny 63 17.2 31 -0.6 30 30 Calm 30.09 1019 10 16.09344 0 0
6:54 pm 18:54 Sunny 60 15.6 34 1.1 38 38 SW 5 7 30.09 1019 10 16.09344 0 0
7:54 pm 19:54 Partly Cloudy 58 14.4 38 3.3 48 48 S 8 13 30.09 1019 10 16.09344 0 0
8:54 pm 20:54 Mostly Clear 53 11.7 39 3.9 59 59 S 9 15 30.09 1019 10 16.09344 0 0
9:54 pm 21:54 Clear 50 10 39 3.9 66 66 S 6 9 30.09 1019 10 16.09344 0 0
10:54 pm 22:54 Clear 49 9.4 41 5 74 74 S 5 7 30.09 1019 10 16.09344 0 0
11:54 pm 23:54 Cloudy 52 11.1 42 5.6 69 69 S 7 11 30.06 1018 10 16.09344 0 0

Powered by AerisWeather